Shishmaref, AK

10:56 AM AKDT on April 29, 2017 (GMT -0800)
New Shishmaref

Weather History for PASH - October, 2013

Change the Weather History Date:

Thursday, October 10, 2013

  Actual Average Record
Temperature  
Mean Temperature 32 °F -  
Max Temperature 35 °F 32 °F 44 °F (2006)
Min Temperature 30 °F 27 °F 21 °F (1996)
Degree Days  
Heating Degree Days 32    
Moisture  
Dew Point 30 °F    
Average Humidity 87    
Maximum Humidity 93    
Minimum Humidity 80    
Precipitation  
Precipitation 0.05 in - - ()
Sea Level Pressure  
Sea Level Pressure 29.38 in    
Wind  
Wind Speed 11 mph (ENE)    
Max Wind Speed 16 mph    
Max Gust Speed 22 mph    
Visibility 10 miles    
Events      
Averages and records for this station are not official NWS values.
T = Trace of Precipitation, MM = Missing Value Source: NWS Daily Summary

Daily Weather History Graph

Daily Weather History Graph

Search for Another Location

Airport or City:

Trip Planner

Search our weather history database for the weather conditions in past years. The results will help you decide how hot, cold, wet, or windy it might be!

Date:

Astronomy

Oct. 10, 2013 Rise Set
Actual Time 9:46 AM AKDT 7:54 PM AKDT
Civil Twilight 8:54 AM AKDT 8:46 PM AKDT
Nautical Twilight 7:54 AM AKDT 9:46 PM AKDT
Astronomical Twilight 6:51 AM AKDT 10:48 PM AKDT
Moon 5:35 PM AKDT (10/10) 11:04 PM AKDT (10/10)
Length of Visible Light 11h 52m
Length of Day
10h 07m
Waxing Crescent, 37% of the Moon is Illuminated
Oct 10
Waxing Crescent
Oct 11
First Quarter
Oct 18
Full
Oct 26
Last Quarter
Nov 3
New

Hourly Weather History & Observations

Time (AKDT) Temp. Windchill Dew Point Humidity Pressure Visibility Wind Dir Wind Speed Gust Speed Precip Events Conditions
12:16 AM 32.0 °F 24.8 °F 28.4 °F 87% 29.55 in 10.0 mi East 8.1 mph - N/A   Overcast
12:36 AM 32.0 °F 24.8 °F 28.4 °F 87% 29.55 in 10.0 mi East 8.1 mph - N/A   Scattered Clouds
12:56 AM 32.0 °F 25.6 °F 28.4 °F 87% 29.54 in 10.0 mi ENE 6.9 mph - N/A   Clear
1:16 AM 30.2 °F 23.4 °F 28.4 °F 93% 29.54 in 10.0 mi ENE 6.9 mph - N/A   Clear
1:36 AM 30.2 °F 23.4 °F 28.4 °F 93% 29.54 in 10.0 mi ENE 6.9 mph - N/A   Mostly Cloudy
1:56 AM 30.2 °F 22.6 °F 28.4 °F 93% 29.53 in 10.0 mi East 8.1 mph - N/A   Scattered Clouds
2:16 AM 30.2 °F 23.4 °F 28.4 °F 93% 29.53 in 10.0 mi ENE 6.9 mph - N/A   Scattered Clouds
2:36 AM 32.0 °F 24.8 °F 28.4 °F 87% 29.52 in 10.0 mi ENE 8.1 mph - N/A   Overcast
2:56 AM 32.0 °F 23.6 °F 28.4 °F 87% 29.52 in 10.0 mi East 10.4 mph - N/A   Overcast
3:16 AM 32.0 °F 23.6 °F 28.4 °F 87% 29.51 in 10.0 mi East 10.4 mph - N/A   Overcast
3:36 AM 32.0 °F 24.8 °F 28.4 °F 87% 29.50 in 10.0 mi ENE 8.1 mph - N/A   Mostly Cloudy
3:56 AM 32.0 °F 24.8 °F 28.4 °F 87% 29.50 in 10.0 mi ENE 8.1 mph - N/A   Partly Cloudy
4:16 AM 32.0 °F 24.2 °F 28.4 °F 87% 29.49 in 10.0 mi ENE 9.2 mph - N/A   Clear
4:36 AM 32.0 °F 24.2 °F 28.4 °F 87% 29.48 in 10.0 mi ENE 9.2 mph - N/A   Clear
4:56 AM 32.0 °F 23.6 °F 28.4 °F 87% 29.48 in 10.0 mi ENE 10.4 mph - N/A   Clear
5:16 AM 32.0 °F 23.0 °F 26.6 °F 80% 29.47 in 10.0 mi East 11.5 mph - N/A   Clear
5:36 AM 32.0 °F 22.5 °F 26.6 °F 80% 29.46 in 10.0 mi ENE 12.7 mph - N/A   Clear
5:56 AM 32.0 °F 22.1 °F 28.4 °F 87% 29.46 in 10.0 mi ENE 13.8 mph - N/A   Clear
6:16 AM 32.0 °F 22.5 °F 28.4 °F 87% 29.46 in 10.0 mi ENE 12.7 mph - N/A   Partly Cloudy
6:36 AM 32.0 °F 22.1 °F 28.4 °F 87% 29.45 in 10.0 mi ENE 13.8 mph - N/A   Scattered Clouds
6:56 AM 33.8 °F 24.8 °F 28.4 °F 81% 29.44 in 10.0 mi ENE 12.7 mph - N/A   Partly Cloudy
7:16 AM 33.8 °F 24.8 °F 28.4 °F 81% 29.43 in 10.0 mi ENE 12.7 mph - N/A   Scattered Clouds
7:36 AM 33.8 °F 24.3 °F 28.4 °F 81% 29.42 in 10.0 mi ENE 13.8 mph 19.6 mph N/A   Scattered Clouds
7:56 AM 33.8 °F 24.8 °F 28.4 °F 81% 29.42 in 10.0 mi ENE 12.7 mph - N/A   Clear
8:16 AM 33.8 °F 24.8 °F 28.4 °F 81% 29.42 in 10.0 mi ENE 12.7 mph - N/A   Partly Cloudy
8:36 AM 33.8 °F 24.3 °F 28.4 °F 81% 29.41 in 10.0 mi ENE 13.8 mph - N/A   Partly Cloudy
8:56 AM 33.8 °F 23.5 °F 28.4 °F 81% 29.40 in 10.0 mi ENE 16.1 mph - N/A   Partly Cloudy
9:16 AM 33.8 °F 24.3 °F 28.4 °F 81% 29.39 in 10.0 mi ENE 13.8 mph 20.7 mph N/A   Mostly Cloudy
9:36 AM 33.8 °F 24.3 °F 28.4 °F 81% 29.38 in 10.0 mi ENE 13.8 mph - N/A   Overcast
9:56 AM 33.8 °F 23.5 °F 28.4 °F 81% 29.37 in 10.0 mi ENE 16.1 mph - N/A   Mostly Cloudy
10:16 AM 33.8 °F 23.9 °F 28.4 °F 81% 29.37 in 10.0 mi ENE 15.0 mph - N/A   Overcast
10:36 AM 33.8 °F 24.3 °F 28.4 °F 81% 29.38 in 10.0 mi ENE 13.8 mph - N/A   Overcast
10:56 AM 33.8 °F 24.3 °F 28.4 °F 81% 29.37 in 10.0 mi East 13.8 mph - N/A   Mostly Cloudy
11:16 AM 33.8 °F 24.3 °F 28.4 °F 81% 29.37 in 10.0 mi East 13.8 mph - N/A   Overcast
11:36 AM 33.8 °F 23.9 °F 28.4 °F 81% 29.37 in 4.0 mi East 15.0 mph - N/A   Overcast
11:56 AM 33.8 °F 23.5 °F 28.4 °F 81% 29.36 in 4.0 mi East 16.1 mph 21.9 mph N/A   Overcast
12:16 PM 33.8 °F 23.9 °F 28.4 °F 81% 29.36 in 3.0 mi ENE 15.0 mph - N/A   Overcast
12:36 PM 33.8 °F 23.9 °F 30.2 °F 87% 29.35 in 9.0 mi ENE 15.0 mph - N/A   Overcast
12:56 PM 33.8 °F 23.9 °F 30.2 °F 87% 29.35 in 3.0 mi ENE 15.0 mph - N/A   Overcast
1:16 PM 33.8 °F 23.9 °F 30.2 °F 87% 29.34 in 6.0 mi ENE 15.0 mph - N/A   Overcast
1:36 PM 33.8 °F 23.9 °F 30.2 °F 87% 29.34 in 10.0 mi ENE 15.0 mph 19.6 mph N/A   Overcast
1:56 PM 33.8 °F 23.9 °F 30.2 °F 87% 29.34 in 10.0 mi ENE 15.0 mph - N/A   Overcast
2:16 PM 33.8 °F 23.9 °F 30.2 °F 87% 29.33 in 10.0 mi ENE 15.0 mph - 0.01 in   Overcast
2:36 PM 33.8 °F 24.3 °F 30.2 °F 87% 29.33 in 10.0 mi ENE 13.8 mph - 0.01 in   Overcast
2:56 PM 33.8 °F 24.3 °F 30.2 °F 87% 29.32 in 10.0 mi East 13.8 mph - 0.01 in   Overcast
3:16 PM 33.8 °F 24.8 °F 30.2 °F 87% 29.32 in 10.0 mi East 12.7 mph - N/A   Overcast
3:36 PM 33.8 °F 24.8 °F 30.2 °F 87% 29.32 in 10.0 mi East 12.7 mph - N/A   Overcast
3:56 PM 33.8 °F 25.8 °F 30.2 °F 87% 29.31 in 10.0 mi ENE 10.4 mph - N/A   Overcast
4:16 PM 33.8 °F 25.3 °F 30.2 °F 87% 29.31 in 10.0 mi ENE 11.5 mph - N/A   Overcast
4:36 PM 33.8 °F 25.8 °F 30.2 °F 87% 29.31 in 10.0 mi ENE 10.4 mph - N/A   Overcast
4:56 PM 33.8 °F 25.8 °F 30.2 °F 87% 29.30 in 10.0 mi ENE 10.4 mph - 0.01 in   Overcast
5:16 PM 33.8 °F 25.8 °F 30.2 °F 87% 29.30 in 10.0 mi ENE 10.4 mph - 0.01 in   Overcast
5:36 PM 33.8 °F 26.4 °F 32.0 °F 93% 29.29 in 10.0 mi ENE 9.2 mph - 0.01 in   Overcast
5:56 PM 33.8 °F 26.4 °F 32.0 °F 93% 29.29 in 10.0 mi East 9.2 mph - 0.01 in   Overcast
6:16 PM 35.6 °F 28.6 °F 33.8 °F 93% 29.29 in 10.0 mi East 9.2 mph - N/A   Overcast
6:36 PM 35.6 °F 28.0 °F 33.8 °F 93% 29.29 in 10.0 mi East 10.4 mph - N/A   Overcast
6:56 PM 35.6 °F 28.0 °F 33.8 °F 93% 29.29 in 10.0 mi East 10.4 mph - N/A   Mostly Cloudy
7:16 PM 35.6 °F 28.0 °F 33.8 °F 93% 29.29 in 10.0 mi East 10.4 mph - N/A   Overcast
7:36 PM 35.6 °F 28.0 °F 33.8 °F 93% 29.28 in 10.0 mi East 10.4 mph - N/A   Mostly Cloudy
7:56 PM 35.6 °F 28.6 °F 33.8 °F 93% 29.28 in 10.0 mi East 9.2 mph - N/A   Mostly Cloudy
8:16 PM 35.6 °F 29.2 °F 33.8 °F 93% 29.28 in 10.0 mi ENE 8.1 mph - N/A   Overcast
8:36 PM 35.6 °F 28.6 °F 33.8 °F 93% 29.28 in 10.0 mi East 9.2 mph - N/A   Overcast
8:56 PM 35.6 °F 27.1 °F 33.8 °F 93% 29.28 in 10.0 mi East 12.7 mph - N/A   Mostly Cloudy
9:16 PM 35.6 °F 26.6 °F 33.8 °F 93% 29.28 in 10.0 mi East 13.8 mph - N/A   Mostly Cloudy
9:36 PM 35.6 °F 27.1 °F 33.8 °F 93% 29.28 in 10.0 mi East 12.7 mph - N/A   Overcast
9:56 PM 35.6 °F 27.5 °F 33.8 °F 93% 29.28 in 10.0 mi East 11.5 mph - N/A   Mostly Cloudy
10:16 PM 35.6 °F 28.0 °F 33.8 °F 93% 29.28 in 10.0 mi East 10.4 mph - N/A   Scattered Clouds
10:36 PM 35.6 °F 28.0 °F 33.8 °F 93% 29.28 in 10.0 mi East 10.4 mph - N/A   Scattered Clouds
10:56 PM 35.6 °F 28.6 °F 33.8 °F 93% 29.28 in 10.0 mi East 9.2 mph - N/A   Overcast
11:16 PM 35.6 °F 28.0 °F 33.8 °F 93% 29.29 in 10.0 mi East 10.4 mph - N/A   Mostly Cloudy
11:36 PM 35.6 °F 28.0 °F 33.8 °F 93% 29.29 in 10.0 mi East 10.4 mph - 0.02 in   Overcast
11:56 PM 35.6 °F 29.2 °F 33.8 °F 93% 29.29 in 10.0 mi East 8.1 mph - 0.02 in   Overcast